EHI
16 15 12 9 9 11 10 6 2 1 0 1 1 1 2 3 4 6 7 4 1 0 0 0 0 0 0 0 0 0 0 0 0 0 0 0 0 0
18 16 14 11 9 9 7 4 2 1 0 1 2 1 1 1 3 5 6 3 1 0 0 0 0 0 0 0 0 0 0 0 0 0 0 0 0 0
14 13 12 11 8 7 5 3 1 1 0 1 2 1 0 0 2 3 3 2 1 0 0 0 0 0 0 0 0 0 0 0 0 0 0 0 0 0
7 7 7 7 6 4 3 2 1 1 0 1 2 1 0 0 1 2 1 1 0 0 0 0 0 0 0 0 0 0 0 0 0 0 0 0 0 0
6 5 4 4 3 3 2 1 0 0 0 1 2 2 1 0 1 1 0 0 0 0 0 0 0 0 0 0 0 0 0 0 0 0 0 0 0 0
6 5 3 2 2 1 1 0 0 0 0 0 1 1 1 0 0 0 0 0 0 0 0 0 0 0 0 0 0 0 0 0 0 0 0 0 0 0
7 5 2 1 0 0 0 0 0 0 0 0 0 0 0 0 0 0 0 0 0 0 0 0 0 0 0 0 0 0 0 0 0 0 0 0 0 0
6 4 1 0 0 0 0 0 0 0 0 0 0 0 0 0 0 0 0 0 0 0 0 0 0 0 0 0 0 0 0 0 0 0 0 0 0 0
4 3 1 0 0 0 0 0 0 0 0 0 0 0 0 0 0 0 0 0 0 0 0 0 0 0 0 0 0 0 0 0 0 0 0 0 0 0
3 3 2 1 0 0 0 0 0 0 0 0 0 0 0 0 0 0 0 0 0 0 0 0 0 0 0 0 0 0 0 0 0 0 0 0 0 0
3 3 2 1 0 0 0 0 0 0 0 0 0 0 0 0 0 0 0 0 0 0 0 0 0 0 0 1 0 0 0 0 0 0 0 0 0 0
2 1 1 1 0 0 0 0 0 0 0 0 0 0 0 0 0 0 0 0 0 0 0 0 0 0 0 0 0 0 0 0 0 0 0 0 0 0
1 0 0 0 0 0 0 0 0 0 0 0 0 0 0 0 0 0 0 0 0 0 0 0 0 0 0 0 0 0 0 0 0 0 0 0 0 0
0 0 0 0 0 0 0 0 0 0 0 0 0 0 0 0 0 0 0 0 0 0 0 0 0 0 0 0 0 0 0 0 0 0 0 0 0 0
0 0 0 0 0 0 0 0 0 0 0 0 0 0 0 0 0 0 0 0 0 0 0 0 0 0 0 0 0 0 0 0 0 0 0 0 0 0
0 0 0 0 0 0 0 0 0 0 0 0 0 0 0 0 0 0 0 0 0 0 0 0 0 0 0 0 0 0 0 0 0 0 0 0 0 0
0 0 0 0 0 0 0 0 0 0 0 0 0 0 0 0 0 0 0 0 0 0 0 0 0 0 0 0 0 0 0 0 0 0 0 0 0 0
0 0 0 0 0 0 0 0 0 0 0 0 0 0 0 0 0 0 0 0 0 0 0 0 0 0 0 0 0 0 0 0 0 0 0 0 0 0
0 0 0 0 0 0 0 0 0 0 0 0 0 0 0 0 0 0 0 0 0 0 0 0 0 0 0 0 0 0 0 0 0 0 0 0 0 0
0 0 0 0 0 0 0 0 0 0 0 0 0 0 0 0 0 0 0 0 0 0 0 0 0 0 0 0 0 0 0 0 0 0 0 0 0 0
0 0 0 0 0 0 0 0 0 0 0 0 0 0 0 0 0 0 0 0 0 0 0 0 0 0 0 0 0 0 0 0 0 0 0 0 0 0
0 0 0 0 0 0 0 0 0 0 0 0 0 0 0 0 0 0 0 0 0 0 0 0 0 0 0 0 0 0 0 0 0 0 0 0 0 0
0 0 0 0 0 0 0 0 0 0 0 0 0 0 0 0 0 0 0 0 0 0 0 0 0 0 0 0 0 0 0 0 0 0 0 0 0 0
Wind_Speed
2 2 2 2 2 2 2 3 3 2 2 1 0 1 1 2 3 2 3 5 5 5 5 5 5 6 6 5 5 4 4 5 5 5 5 5 5 5
2 2 2 2 2 2 2 2 2 2 1 1 0 1 1 2 3 3 3 5 4 4 4 5 5 5 5 5 5 4 5 5 5 5 6 5 5 6
2 1 1 1 1 2 1 1 0 1 2 1 0 1 1 1 2 1 1 2 2 4 5 5 5 5 5 5 4 4 4 5 5 5 6 6 6 6
1 1 1 1 1 2 1 1 1 1 2 2 1 1 0 1 1 1 1 2 2 5 6 6 6 5 5 4 4 4 4 4 4 5 5 6 7 7
0 0 1 1 1 1 1 1 1 0 1 2 1 1 1 1 1 1 1 1 1 4 6 6 5 5 4 4 3 3 4 4 4 4 4 5 6 7
1 1 1 2 1 1 1 1 1 0 1 2 2 1 1 1 1 1 1 0 1 2 3 4 5 5 4 4 4 4 4 4 4 5 5 5 5 6
1 1 2 2 3 2 1 1 1 0 1 2 2 1 1 1 1 1 1 1 1 1 2 2 2 2 2 3 3 4 3 4 4 5 5 5 6 6
1 1 1 2 2 2 3 3 2 1 1 1 1 2 2 1 1 2 2 2 1 1 2 2 2 2 2 2 3 4 4 4 4 5 5 6 6 6
1 1 1 2 2 2 2 1 2 2 0 2 2 2 2 1 1 2 2 2 2 2 2 2 2 2 2 3 5 5 5 5 5 6 6 6 7 7
1 1 1 2 3 2 1 2 2 2 1 0 0 1 1 1 2 3 3 2 2 2 2 2 2 2 2 2 5 6 5 6 6 6 6 6 6 6
2 2 2 3 4 3 1 1 1 2 2 2 1 1 1 1 1 1 2 2 2 1 1 1 2 2 2 2 3 6 6 6 6 7 7 6 6 6
2 3 5 4 4 4 1 1 1 2 1 1 1 1 1 1 1 1 1 2 1 1 1 1 2 1 1 2 2 2 3 4 5 5 6 7 7 4
1 2 3 4 4 4 3 2 1 2 1 1 0 1 0 0 0 0 0 1 1 1 1 1 1 1 1 2 2 2 3 2 3 3 5 6 6 5
1 2 3 3 2 2 2 2 3 2 1 1 0 1 1 1 1 1 1 1 0 1 1 1 1 1 1 1 1 2 2 2 3 3 3 4 5 5
2 4 3 2 0 0 0 1 2 2 1 1 1 1 0 0 0 0 0 0 0 1 0 1 1 1 1 1 1 2 2 2 2 3 3 3 3 3
1 2 2 1 1 1 1 1 1 1 1 1 1 0 0 0 0 0 1 1 1 1 0 0 0 1 1 1 2 2 2 2 2 2 2 2 2 3
1 1 1 1 1 1 1 1 0 1 1 1 0 1 1 0 1 1 1 1 1 1 1 1 1 0 1 1 1 2 2 2 3 3 3 2 3 3
2 1 1 1 1 1 1 1 1 1 1 1 1 1 1 1 1 1 1 1 1 1 1 1 1 1 1 1 2 2 2 2 2 3 3 3 3 3
2 1 1 1 1 1 1 1 1 1 1 1 1 1 2 2 1 1 1 1 1 1 1 1 1 2 2 2 2 4 3 2 2 2 3 3 3 4
1 1 1 1 1 1 1 1 1 0 1 1 1 2 2 2 2 1 1 1 2 1 1 1 1 1 2 2 1 2 5 4 3 3 2 2 2 2
2 2 2 2 1 1 1 1 1 1 1 1 1 1 2 2 2 2 1 2 2 1 2 2 2 2 1 1 1 1 2 4 5 3 2 2 2 3
2 2 2 2 1 0 0 0 1 1 1 1 1 1 2 2 2 3 2 2 2 2 2 1 1 1 1 1 2 2 2 2 4 6 6 4 3 3
2 2 1 1 1 0 0 1 1 1 1 2 2 2 2 2 2 2 2 2 2 2 2 1 1 1 1 2 2 2 2 3 3 3 4 8 10 9
Wind_Direction
261 264 264 271 265 252 237 217 208 228 241 207 165 75 72 83 115 120 113 121 140 156 172 179 178 181 182 182 183 184 188 189 184 186 188 189 190 188
247 259 268 279 288 279 248 237 221 207 227 213 149 127 96 94 109 108 107 112 123 149 164 165 167 169 169 168 172 177 183 182 180 183 186 188 186 182
279 285 308 318 321 311 289 272 220 178 199 228 102 100 87 99 101 95 105 110 116 128 139 145 145 149 154 161 168 176 181 183 184 185 184 183 181 181
311 344 327 321 322 325 325 322 236 198 172 178 174 197 174 150 143 146 122 113 109 112 120 120 123 131 139 145 158 169 175 178 183 182 178 178 178 177
320 334 334 346 336 350 328 316 300 209 155 161 182 181 186 195 171 154 119 119 128 120 124 122 120 123 128 141 156 164 168 173 175 174 175 178 177 177
47 44 43 39 5 337 307 312 326 344 141 142 163 175 196 213 191 181 170 215 201 150 129 134 132 136 138 141 148 157 166 171 176 179 177 175 172 167
66 69 69 65 53 30 3 6 353 283 172 160 175 174 186 194 208 218 193 217 269 177 154 150 148 148 160 161 157 152 156 167 175 180 180 180 175 166
61 64 105 106 79 61 56 38 16 291 214 193 203 200 219 215 208 210 202 209 221 198 174 184 166 165 170 166 161 162 169 174 181 182 182 182 180 175
98 60 34 61 79 61 54 30 13 20 172 218 211 210 216 211 217 224 227 226 231 208 192 194 180 175 173 163 164 171 179 187 189 190 190 188 184 182
71 78 67 61 44 27 32 43 34 23 353 297 144 253 208 226 231 223 221 231 241 219 187 204 193 186 168 160 171 174 186 196 199 198 198 195 190 185
61 60 65 67 41 35 50 42 43 49 52 65 108 170 186 208 240 239 223 220 233 226 208 201 196 183 170 171 181 184 193 205 209 207 201 195 189 181
83 84 71 57 46 29 39 37 43 23 12 28 71 143 187 207 226 247 250 246 230 211 212 226 210 186 187 172 167 178 199 206 203 202 200 197 189 179
81 84 75 62 48 29 27 31 16 328 310 308 206 148 97 21 11 335 336 280 282 287 197 221 225 197 172 168 175 184 183 183 185 197 203 206 203 188
57 73 92 83 48 27 36 23 358 333 290 285 57 78 54 26 353 346 33 47 288 241 228 202 209 183 188 188 178 173 180 178 170 176 181 188 205 208
71 101 124 141 108 42 43 342 331 306 306 330 25 31 66 196 247 303 320 187 317 295 206 179 222 192 185 189 177 170 174 186 175 171 171 173 183 182
94 116 142 181 273 341 357 300 275 311 333 2 6 336 287 206 233 261 264 244 226 222 178 129 195 189 209 206 185 185 175 175 175 171 164 172 181 188
162 170 167 168 224 239 243 238 246 323 321 343 329 302 282 269 280 276 267 265 244 228 229 217 219 198 206 204 200 190 188 189 178 177 176 188 202 200
177 183 191 212 223 240 241 237 227 266 284 265 254 262 259 255 261 276 284 286 288 269 238 219 199 210 237 259 214 207 202 204 189 182 183 190 211 211
195 224 236 235 251 261 252 249 236 226 255 265 265 274 274 268 258 253 251 266 273 268 256 246 227 221 236 251 240 208 202 199 186 194 203 207 213 209
232 258 267 266 247 252 272 281 277 226 233 269 272 270 271 273 271 257 246 253 266 275 272 262 254 255 262 254 233 225 210 196 199 209 215 218 221 205
232 258 266 275 263 229 234 246 257 264 267 264 270 283 287 285 285 280 272 268 258 257 264 262 252 239 244 254 231 231 214 205 201 199 199 218 235 230
240 243 250 270 286 270 238 263 277 293 300 290 299 300 292 294 295 293 288 277 260 261 272 259 225 234 240 245 249 230 221 201 212 223 229 218 205 219
255 265 253 258 299 333 347 319 321 332 323 306 295 288 288 293 300 302 305 304 302 294 294 273 243 255 254 247 259 259 230 218 219 216 233 233 230 232